Find Starlink 11420

NORAD ID: 62591 Int'l Des: 2025-008 Owner: SPXS Country: US Constellation: starlink operational
LEOCIRCULAR

現在のビュー

3D地球を読み込み中...

About Starlink 11420

Starlink 11420 (NORAD 62591) is a starlink constellation satellite (v2 mini d2c) launched Jan 13, 2025 by SPXS of US. It operates in LEO, CIRCULAR orbit with a mass of 960.00 kg.

Starlink 11420について

説明を読み込み中...

次回通過

Passes for default location (London). Set your location on the main map for personalized predictions.

高度履歴

Loading altitude history...

軌道要素

1 62591U 25008E 26169.47478312 .00152425 00000-0 11693-2 0 9999
2 62591 42.9984 238.7971 0000691 194.4461 165.6387 15.70847712 83147
Epoch: Jun 18, 2026 • Age: 9 hours

現在のステータス

高度 369.3 km
速度 7.69 km/s
衛星直下点 -43.16°S, 62.3°W
打ち上げ日 Jan 13, 2025
運用期間 1.4 years
タイプ internet

技術仕様

分類 Payload
質量 960.00 kg
乾燥質量 910.00 kg
総質量 960.00 kg
長さ 0.30 m
直径 4.10 m
スパン 29.00 m
形状 Box + pan
製造者 SPXS
バスタイプ Starlink V2MD
フェーズステータス In Orbit
所有者/国 SPXS/US

Most Searched